Location: Cazavet
(43.0017°N, 1.0431°E)
Time: 08:50:32
(UTC+00:00)

ATLAS 2AS CENTAUR R/B - Pass Details

Date: 18 January 2026
Orbit: 1050 x 1161 km, 63.7° (Epoch: 10 February)

Event Time Altitude Azimuth Distance (km) Brightness Sun altitude
Exits shadow 05:04:09 23° 339° (NNW) 2,088 4.0 -25.0°
Maximum altitude 05:08:22 53° 48° (NE) 1,271 3.2 -24.2°
Drops below altitude 10° 05:14:57 10° 124° (SE) 2,868 5.8 -23.0°
Sets 05:17:40 0° 129° (SE) 3,827 6.5 -22.5°
